Regional Weather Roundup
Issued by NWS

Home | Current Version | Previous Version | Graphics & Text | Print | Product List | Glossary Off
Versions: 1 2 3 4 5 6 7 8 9 10 11 12 13 14 15 16 17 18 19 20 21 22 23 24 25 26 27 28 29 30 31 32 33 34 35 36 37 38 39 40 41 42 43 44 45 46 47 48 49 50

000
ASUS43 KTOP 242108
RWRKS

WEATHER ROUNDUP FOR KANSAS
NATIONAL WEATHER SERVICE GOODLAND KS
400 PM CDT SUN MAY 24 2015

NOTE:  "FAIR" INDICATES FEW OR NO CLOUDS BELOW 12,000 FEET WITH NO
SIGNIFICANT WEATHER AND/OR OBSTRUCTIONS TO VISIBILITY.

KSZ001>006-013>018-027>032-041>047-242200-
NORTHWEST KANSAS

CITY           SKY/WX    TMP DP  RH WIND       PRES   REMARKS
GOODLAND       MOSUNNY   69  52  54 VRB7      29.80F
HAYS           CLOUDY    70  55  60 S12       29.83S
HILL CITY      CLOUDY    68  58  70 S7        29.82F
RUSSELL        CLOUDY    68  60  75 S10       29.81F
$$

KSZ061>065-074>080-084>089-242200-
SOUTHWEST KANSAS

CITY           SKY/WX    TMP DP  RH WIND       PRES   REMARKS
DODGE CITY     CLOUDY    65  59  81 SE13      29.83F
ELKHART          N/A     71  55  56 SE8         N/A
GARDEN CITY    CLOUDY    66  57  72 SE16      29.80F
GREAT BEND     CLOUDY    66  61  82 SE12      29.83F
LIBERAL        CLOUDY    72  57  60 S12       29.81S
PRATT          DRIZZLE   63  59  88 S8        29.86S
$$

KSZ066>073-081>083-090>101-242200-
SOUTHEAST KANSAS

CITY           SKY/WX    TMP DP  RH WIND       PRES   REMARKS
CHANUTE        LGT RAIN  66  63  90 S8        29.89S
COFFEYVILLE    LGT RAIN  66  64  93 S3        29.89  FOG
HUTCHINSON     CLOUDY    70  60  70 S9        29.85S
MEDICINE LODGE   N/A     64  60  87 SE9       29.83F
NEWTON         CLOUDY    66  57  72 S12       29.88F
PARSONS        LGT RAIN  66  65  96 S5        29.91
WICHITA INTL   CLOUDY    66  61  84 S13       29.86S
WICHITA JABRA  CLOUDY    66  60  81 S13       29.86S
WICHITA MCCONL CLOUDY    65  61  85 SE16      29.86F
WINFIELD       LGT RAIN  63  61  93 S5        29.87F
$$

KSZ007>012-019>026-033>040-048>060-102>105-242200-
NORTHEAST KANSAS

CITY           SKY/WX    TMP DP  RH WIND       PRES   REMARKS
CONCORDIA      CLOUDY    66  60  81 S12       29.84S
EMPORIA        LGT RAIN  66  62  87 S12       29.88R
LAWRENCE       LGT RAIN  70  62  76 SW10      29.86S
MANHATTAN      CLOUDY    69  62  78 S15       29.84S
MARYSVILLE     CLOUDY    68  61  77 S6        29.84R
OLATHE IND     CLOUDY    70  61  73 S9        29.87F
OLATHE EXE     CLOUDY    69  63  81 S7        29.86F
SALINA         CLOUDY    69  61  75 S12       29.84F
TOPEKA BILLARD CLOUDY    70  62  76 S12       29.86S
TOPEKA FORBES  LGT RAIN  69  61  75 S13       29.86S
$$


USA.gov is the U.S. government's official web portal to all federal, state and local government web resources and services.